SWG33 KMCO-CYYZ

Flight info

Callsign SWG33
Flight time 2h 17m
Altitude 37000
Route FATHE4 VIYAP Q69 RICCS DCT OXMAN LINNG3
Aircraft B38M/M-SDE1FGHILORVWXY/HB1

Departure

Time 2026-05-03 23:16
Airport Orlando International Airport (KMCO)

Arrival

Time 2026-05-04 01:34
Airport Toronto Pearson International Airport (CYYZ)
Time Latitude Longitude Altitude Speed Heading
2026-05-03 21:36 28.41224 -81.31627 99 ft 0 kts 179°
2026-05-03 22:59 28.41244 -81.31628 99 ft 4 kts 176°
2026-05-03 22:59 28.41267 -81.31630 99 ft 2 kts 177°
2026-05-03 22:59 28.41292 -81.31633 97 ft 4 kts 166°
2026-05-03 22:59 28.41316 -81.31644 97 ft 4 kts 141°
2026-05-03 23:00 28.41329 -81.31666 91 ft 3 kts 92°
2026-05-03 23:00 28.41329 -81.31684 101 ft 4 kts 91°
2026-05-03 23:00 28.41330 -81.31706 98 ft 1 kts 90°
2026-05-03 23:06 28.41329 -81.31670 99 ft 9 kts 91°
2026-05-03 23:06 28.41343 -81.31580 99 ft 13 kts 54°
2026-05-03 23:06 28.41429 -81.31550 100 ft 14 kts
2026-05-03 23:07 28.41530 -81.31539 101 ft 15 kts
2026-05-03 23:07 28.41618 -81.31588 101 ft 16 kts 295°
2026-05-03 23:07 28.41648 -81.31663 101 ft 10 kts 295°
2026-05-03 23:07 28.41687 -81.31752 102 ft 16 kts 297°
2026-05-03 23:08 28.41779 -81.31792 100 ft 17 kts 359°
2026-05-03 23:08 28.41922 -81.31793 101 ft 25 kts
2026-05-03 23:08 28.42093 -81.31794 103 ft 19 kts
2026-05-03 23:08 28.42203 -81.31763 103 ft 16 kts 15°
2026-05-03 23:09 28.42268 -81.31696 102 ft 13 kts 66°
2026-05-03 23:09 28.42342 -81.31637 101 ft 14 kts 71°
2026-05-03 23:09 28.42349 -81.31513 99 ft 18 kts 90°
2026-05-03 23:09 28.42351 -81.31341 97 ft 25 kts 90°
2026-05-03 23:10 28.42334 -81.31128 95 ft 28 kts 102°
2026-05-03 23:10 28.42319 -81.30934 95 ft 21 kts 87°
2026-05-03 23:10 28.42330 -81.30775 106 ft 17 kts 85°
2026-05-03 23:10 28.42341 -81.30612 108 ft 24 kts 85°
2026-05-03 23:11 28.42352 -81.30457 104 ft 19 kts 87°
2026-05-03 23:11 28.42358 -81.30292 102 ft 21 kts 89°
2026-05-03 23:11 28.42361 -81.30120 103 ft 22 kts 91°
2026-05-03 23:11 28.42363 -81.29947 102 ft 19 kts 89°
2026-05-03 23:12 28.42356 -81.29812 100 ft 14 kts 117°
2026-05-03 23:12 28.42265 -81.29792 101 ft 16 kts 180°
2026-05-03 23:12 28.42123 -81.29791 101 ft 23 kts 179°
2026-05-03 23:12 28.41957 -81.29788 101 ft 25 kts 179°
2026-05-03 23:13 28.41779 -81.29788 101 ft 26 kts 179°
2026-05-03 23:13 28.41600 -81.29785 101 ft 27 kts 179°
2026-05-03 23:13 28.41408 -81.29784 101 ft 28 kts 179°
2026-05-03 23:13 28.41205 -81.29780 102 ft 30 kts 180°
2026-05-03 23:14 28.41002 -81.29779 99 ft 27 kts 180°
2026-05-03 23:14 28.40846 -81.29777 100 ft 18 kts 169°
2026-05-03 23:14 28.40820 -81.29711 98 ft 11 kts 90°
2026-05-03 23:14 28.40821 -81.29681 96 ft 6 kts 90°
2026-05-03 23:15 28.40822 -81.29607 95 ft 11 kts 88°
2026-05-03 23:15 28.40870 -81.29560 96 ft 9 kts
2026-05-03 23:15 28.40881 -81.29560 96 ft 2 kts 360°
2026-05-03 23:15 28.40989 -81.29560 96 ft 44 kts 359°
2026-05-03 23:16 28.41523 -81.29568 101 ft 108 kts 359°
2026-05-03 23:16 28.42457 -81.29574 102 ft 158 kts 360°
2026-05-03 23:16 28.43603 -81.29575 557 ft 164 kts
2026-05-03 23:16 28.44782 -81.29556 1140 ft 179 kts
2026-05-03 23:17 28.46041 -81.29098 1529 ft 204 kts 25°
2026-05-03 23:17 28.47323 -81.28271 2085 ft 221 kts 28°
2026-05-03 23:17 28.48671 -81.27330 2752 ft 231 kts 29°
2026-05-03 23:17 28.50048 -81.26335 3544 ft 238 kts 30°
2026-05-03 23:18 28.51503 -81.25385 4295 ft 244 kts 19°
2026-05-03 23:18 28.53173 -81.24978 4949 ft 250 kts 360°
2026-05-03 23:18 28.54965 -81.24895 5500 ft 266 kts 356°
2026-05-03 23:18 28.56855 -81.24968 5963 ft 277 kts 352°
2026-05-03 23:19 28.58802 -81.25121 6325 ft 283 kts 350°
2026-05-03 23:19 28.60751 -81.25434 6573 ft 283 kts 346°
2026-05-03 23:19 28.62691 -81.25831 6702 ft 284 kts 345°
2026-05-03 23:19 28.64630 -81.26209 7363 ft 277 kts 347°
2026-05-03 23:20 28.66558 -81.26472 8232 ft 282 kts 348°
2026-05-03 23:20 28.68551 -81.26730 8862 ft 293 kts 347°
2026-05-03 23:20 28.70577 -81.26999 9745 ft 294 kts 347°
2026-05-03 23:20 28.72626 -81.27275 10471 ft 298 kts 346°
2026-05-03 23:21 28.74734 -81.27561 10926 ft 315 kts 346°
2026-05-03 23:21 28.76970 -81.27866 11324 ft 331 kts 346°
2026-05-03 23:21 28.79287 -81.28183 11929 ft 337 kts 346°
2026-05-03 23:21 28.81598 -81.28499 12669 ft 341 kts 346°
2026-05-03 23:22 28.86402 -81.29014 14080 ft 351 kts 348°
2026-05-03 23:22 28.88846 -81.29224 14747 ft 354 kts 348°
2026-05-03 23:22 28.91310 -81.29438 15419 ft 357 kts 348°
2026-05-03 23:23 28.93810 -81.29658 15888 ft 362 kts 348°
2026-05-03 23:23 28.96318 -81.29879 16019 ft 362 kts 348°
2026-05-03 23:23 28.98829 -81.30110 16220 ft 363 kts 347°
2026-05-03 23:23 29.01342 -81.30386 16928 ft 363 kts 346°
2026-05-03 23:24 29.03870 -81.30663 17539 ft 367 kts 346°
2026-05-03 23:24 29.06419 -81.30941 18154 ft 370 kts 346°
2026-05-03 23:24 29.08995 -81.31222 18693 ft 373 kts 346°
2026-05-03 23:24 29.11608 -81.31429 19206 ft 379 kts 349°
2026-05-03 23:25 29.14251 -81.31580 19726 ft 382 kts 348°
2026-05-03 23:25 29.16911 -81.31736 20246 ft 384 kts 348°
2026-05-03 23:25 29.19594 -81.31898 20753 ft 387 kts 348°
2026-05-03 23:25 29.22294 -81.32061 21259 ft 390 kts 348°
2026-05-03 23:26 29.25019 -81.32227 21747 ft 393 kts 348°
2026-05-03 23:26 29.27759 -81.32394 22244 ft 396 kts 348°
2026-05-03 23:26 29.30522 -81.32563 22747 ft 399 kts 347°
2026-05-03 23:26 29.33306 -81.32734 23255 ft 402 kts 347°
2026-05-03 23:27 29.36106 -81.32905 23738 ft 405 kts 347°
2026-05-03 23:27 29.38931 -81.33079 24151 ft 408 kts 347°
2026-05-03 23:27 29.41769 -81.33253 24553 ft 411 kts 347°
2026-05-03 23:27 29.44636 -81.33429 24947 ft 414 kts 347°
2026-05-03 23:28 29.47519 -81.33606 25354 ft 417 kts 347°
2026-05-03 23:28 29.50428 -81.33785 25722 ft 420 kts 347°
2026-05-03 23:28 29.53355 -81.33965 26113 ft 423 kts 347°
2026-05-03 23:28 29.56307 -81.34147 26487 ft 426 kts 347°
2026-05-03 23:29 29.59279 -81.34330 26852 ft 429 kts 347°
2026-05-03 23:29 29.62266 -81.34514 27216 ft 432 kts 347°
2026-05-03 23:29 29.65284 -81.34688 27578 ft 435 kts 347°
2026-05-03 23:29 29.68316 -81.34862 27942 ft 438 kts 347°
2026-05-03 23:30 29.71369 -81.35036 28296 ft 441 kts 347°
2026-05-03 23:30 29.74444 -81.35213 28658 ft 444 kts 347°
2026-05-03 23:30 29.77539 -81.35390 29004 ft 447 kts 347°
2026-05-03 23:30 29.80654 -81.35569 29364 ft 449 kts 346°
2026-05-03 23:31 29.83781 -81.35749 29697 ft 452 kts 346°
2026-05-03 23:31 29.86938 -81.35930 30030 ft 455 kts 346°
2026-05-03 23:31 29.90104 -81.36112 30333 ft 457 kts 346°
2026-05-03 23:31 29.93287 -81.36295 30617 ft 459 kts 346°
2026-05-03 23:32 29.96487 -81.36480 30898 ft 462 kts 346°
2026-05-03 23:32 29.99705 -81.36665 31174 ft 464 kts 346°
2026-05-03 23:32 30.02935 -81.36851 31440 ft 466 kts 346°
2026-05-03 23:32 30.06185 -81.37039 31711 ft 469 kts 346°
2026-05-03 23:33 30.09450 -81.37227 31969 ft 471 kts 346°
2026-05-03 23:33 30.12734 -81.37417 32233 ft 473 kts 346°
2026-05-03 23:33 30.16032 -81.37608 32491 ft 476 kts 346°
2026-05-03 23:33 30.19344 -81.37799 32744 ft 478 kts 346°
2026-05-03 23:34 30.22674 -81.37992 33007 ft 480 kts 346°
2026-05-03 23:34 30.26019 -81.38186 33249 ft 483 kts 346°
2026-05-03 23:34 30.29379 -81.38381 33493 ft 485 kts 346°
2026-05-03 23:34 30.32761 -81.38577 33741 ft 487 kts 346°
2026-05-03 23:35 30.36150 -81.38774 34059 ft 488 kts 346°
2026-05-03 23:35 30.39542 -81.38971 34353 ft 488 kts 346°
2026-05-03 23:35 30.42928 -81.39168 34643 ft 488 kts 346°
2026-05-03 23:35 30.46320 -81.39355 34933 ft 488 kts 346°
2026-05-03 23:36 30.49702 -81.39533 35217 ft 487 kts 346°
2026-05-03 23:36 30.53051 -81.39710 35489 ft 487 kts 345°
2026-05-03 23:36 30.56432 -81.39889 35753 ft 486 kts 345°
2026-05-03 23:36 30.59817 -81.40068 36019 ft 486 kts 345°
2026-05-03 23:37 30.63189 -81.40247 36267 ft 486 kts 345°
2026-05-03 23:37 30.66571 -81.40427 36520 ft 485 kts 345°
2026-05-03 23:37 30.69935 -81.40605 36871 ft 485 kts 345°
2026-05-03 23:37 30.73307 -81.40785 37076 ft 485 kts 345°
2026-05-03 23:38 30.80066 -81.41144 37137 ft 485 kts 345°
2026-05-03 23:38 30.86792 -81.41502 37137 ft 484 kts 345°
2026-05-03 23:39 30.93468 -81.41859 37129 ft 483 kts 345°
2026-05-03 23:39 31.00190 -81.42218 37128 ft 483 kts 345°
2026-05-03 23:40 31.06942 -81.42579 37129 ft 482 kts 345°
2026-05-03 23:40 31.13602 -81.42936 37126 ft 482 kts 345°
2026-05-03 23:41 31.20292 -81.43296 37127 ft 481 kts 345°
2026-05-03 23:41 31.26997 -81.43538 37143 ft 484 kts 348°
2026-05-03 23:42 31.33723 -81.43625 37145 ft 483 kts 347°
2026-05-03 23:42 31.40438 -81.43725 37140 ft 482 kts 348°
2026-05-03 23:43 31.47179 -81.43606 37107 ft 497 kts 360°
2026-05-03 23:43 31.50558 -81.42514 37140 ft 511 kts 11°
2026-05-03 23:43 31.53924 -81.41170 37117 ft 512 kts
2026-05-03 23:44 31.60669 -81.38451 37126 ft 513 kts 10°
2026-05-03 23:44 31.67404 -81.35684 37120 ft 512 kts 10°
2026-05-03 23:45 31.74123 -81.32918 37117 ft 512 kts 10°
2026-05-03 23:45 31.79711 -81.30614 37113 ft 512 kts 11°
2026-05-03 23:46 31.86425 -81.27841 37096 ft 511 kts 11°
2026-05-03 23:46 31.93135 -81.25067 37089 ft 511 kts 11°
2026-05-03 23:47 31.96515 -81.23946 37065 ft 494 kts 357°
2026-05-03 23:47 31.99876 -81.23669 37101 ft 483 kts 352°
2026-05-03 23:47 32.06620 -81.23249 37115 ft 485 kts 352°
2026-05-03 23:48 32.13354 -81.22900 37114 ft 484 kts 352°
2026-05-03 23:48 32.20080 -81.22566 37113 ft 483 kts 352°
2026-05-03 23:49 32.26802 -81.22231 37122 ft 483 kts 352°
2026-05-03 23:49 32.33520 -81.21896 37113 ft 483 kts 352°
2026-05-03 23:50 32.40235 -81.21561 37108 ft 483 kts 352°
2026-05-03 23:50 32.46950 -81.21224 37110 ft 483 kts 353°
2026-05-03 23:51 32.50328 -81.20707 37106 ft 495 kts
2026-05-03 23:51 32.53707 -81.19920 37110 ft 495 kts
2026-05-03 23:51 32.60475 -81.18376 37109 ft 495 kts
2026-05-03 23:52 32.67234 -81.16820 37106 ft 495 kts
2026-05-03 23:52 32.73956 -81.15269 37104 ft 495 kts
2026-05-03 23:53 32.80721 -81.13707 37096 ft 495 kts
2026-05-03 23:53 32.87473 -81.12145 37101 ft 495 kts
2026-05-03 23:54 32.94229 -81.10579 37097 ft 494 kts
2026-05-03 23:54 33.00976 -81.09013 37096 ft 494 kts
2026-05-03 23:55 33.07727 -81.07444 37101 ft 494 kts
2026-05-03 23:55 33.14468 -81.05875 37098 ft 493 kts
2026-05-03 23:56 33.21196 -81.04306 37100 ft 493 kts
2026-05-03 23:56 33.27926 -81.02735 37106 ft 492 kts
2026-05-03 23:57 33.34649 -81.01162 37102 ft 492 kts
2026-05-03 23:57 33.41360 -80.99590 37106 ft 492 kts
2026-05-03 23:58 33.48069 -80.98015 37107 ft 491 kts
2026-05-03 23:58 33.54770 -80.96441 37089 ft 490 kts
2026-05-03 23:59 33.61458 -80.94867 37088 ft 489 kts
2026-05-03 23:59 33.68132 -80.93293 37082 ft 489 kts
2026-05-04 00:00 33.74765 -80.91727 37089 ft 488 kts
2026-05-04 00:00 33.81427 -80.90152 37077 ft 488 kts
2026-05-04 00:01 33.88085 -80.88805 37081 ft 483 kts 359°
2026-05-04 00:01 33.94745 -80.87608 37075 ft 484 kts 360°
2026-05-04 00:02 34.01395 -80.86390 37076 ft 483 kts 360°
2026-05-04 00:02 34.08038 -80.85170 37109 ft 482 kts
2026-05-04 00:03 34.14662 -80.83952 37094 ft 481 kts 360°
2026-05-04 00:03 34.21288 -80.82754 37103 ft 481 kts 360°
2026-05-04 00:04 34.27896 -80.81558 37099 ft 480 kts 360°
2026-05-04 00:04 34.34504 -80.80361 37100 ft 480 kts 360°
2026-05-04 00:05 34.41100 -80.79162 37101 ft 479 kts 360°
2026-05-04 00:05 34.47695 -80.77963 37098 ft 479 kts 360°
2026-05-04 00:06 34.54286 -80.76762 37094 ft 479 kts 360°
2026-05-04 00:06 34.60879 -80.75559 37099 ft 479 kts 360°
2026-05-04 00:07 34.67461 -80.74356 37098 ft 478 kts 360°
2026-05-04 00:07 34.74036 -80.73152 37099 ft 477 kts
2026-05-04 00:08 34.80602 -80.71948 37099 ft 477 kts
2026-05-04 00:08 34.87155 -80.70744 37083 ft 476 kts
2026-05-04 00:09 34.93704 -80.69539 37077 ft 476 kts
2026-05-04 00:09 35.00202 -80.68342 37078 ft 475 kts
2026-05-04 00:10 35.06737 -80.67136 37077 ft 474 kts
2026-05-04 00:10 35.13256 -80.65931 37079 ft 474 kts
2026-05-04 00:11 35.19774 -80.64724 37086 ft 473 kts
2026-05-04 00:11 35.26280 -80.63518 37099 ft 473 kts
2026-05-04 00:12 35.32778 -80.62310 37094 ft 472 kts
2026-05-04 00:12 35.39273 -80.61102 37096 ft 472 kts
2026-05-04 00:13 35.45757 -80.59894 37094 ft 471 kts
2026-05-04 00:13 35.52238 -80.58684 37076 ft 471 kts
2026-05-04 00:14 35.58715 -80.57473 37070 ft 471 kts
2026-05-04 00:14 35.65186 -80.56261 37064 ft 470 kts
2026-05-04 00:15 35.71652 -80.55048 37063 ft 469 kts
2026-05-04 00:15 35.78103 -80.53836 37064 ft 469 kts
2026-05-04 00:16 35.84543 -80.52624 37069 ft 468 kts
2026-05-04 00:16 35.90987 -80.51409 37066 ft 468 kts
2026-05-04 00:17 35.97416 -80.50195 37063 ft 467 kts
2026-05-04 00:17 36.03837 -80.48981 37056 ft 466 kts
2026-05-04 00:18 36.10233 -80.47769 37050 ft 465 kts
2026-05-04 00:18 36.16617 -80.46558 37053 ft 464 kts
2026-05-04 00:19 36.22947 -80.45355 37061 ft 463 kts
2026-05-04 00:19 36.29311 -80.44144 37064 ft 463 kts 360°
2026-05-04 00:20 36.35672 -80.42931 37068 ft 462 kts 360°
2026-05-04 00:20 36.42030 -80.41694 37077 ft 463 kts
2026-05-04 00:21 36.48426 -80.40391 37075 ft 463 kts
2026-05-04 00:21 36.54741 -80.39110 37071 ft 463 kts
2026-05-04 00:22 36.61092 -80.37819 37077 ft 463 kts
2026-05-04 00:22 36.67449 -80.36525 37070 ft 463 kts
2026-05-04 00:23 36.73806 -80.35270 37067 ft 459 kts 357°
2026-05-04 00:23 36.80161 -80.34417 37072 ft 460 kts 357°
2026-05-04 00:24 36.86515 -80.33513 37068 ft 459 kts 357°
2026-05-04 00:24 36.92873 -80.32602 37079 ft 460 kts 357°
2026-05-04 00:25 36.99232 -80.31689 37080 ft 460 kts 357°
2026-05-04 00:25 37.05586 -80.30776 37086 ft 459 kts 357°
2026-05-04 00:26 37.11935 -80.29861 37093 ft 459 kts 357°
2026-05-04 00:26 37.18288 -80.28946 37099 ft 459 kts 357°
2026-05-04 00:27 37.24635 -80.28028 37089 ft 459 kts 357°
2026-05-04 00:27 37.30986 -80.27109 37098 ft 460 kts 358°
2026-05-04 00:28 37.37342 -80.26188 37085 ft 459 kts 357°
2026-05-04 00:28 37.43689 -80.25266 37078 ft 460 kts 357°
2026-05-04 00:29 37.50007 -80.24347 37073 ft 460 kts 357°
2026-05-04 00:29 37.56406 -80.23415 37076 ft 460 kts 358°
2026-05-04 00:30 37.62718 -80.22493 37062 ft 460 kts 357°
2026-05-04 00:30 37.69075 -80.21550 37065 ft 460 kts 358°
2026-05-04 00:31 37.75424 -80.20606 37060 ft 459 kts 358°
2026-05-04 00:31 37.81774 -80.19658 37041 ft 460 kts 358°
2026-05-04 00:32 37.88131 -80.18709 37072 ft 460 kts 358°
2026-05-04 00:32 37.94469 -80.17761 37071 ft 459 kts 358°
2026-05-04 00:33 38.03975 -80.16335 37080 ft 459 kts 358°
2026-05-04 00:34 38.09234 -80.15545 37084 ft 458 kts 358°
2026-05-04 00:34 38.15570 -80.14591 37079 ft 458 kts 358°
2026-05-04 00:35 38.21886 -80.13639 37092 ft 457 kts 358°
2026-05-04 00:35 38.28203 -80.12685 37093 ft 457 kts 358°
2026-05-04 00:36 38.34519 -80.11730 37085 ft 457 kts 358°
2026-05-04 00:36 38.40791 -80.11322 37097 ft 451 kts 353°
2026-05-04 00:37 38.47055 -80.10991 37094 ft 451 kts 353°
2026-05-04 00:37 38.53324 -80.10631 37100 ft 451 kts 353°
2026-05-04 00:38 38.59587 -80.10268 37081 ft 450 kts 353°
2026-05-04 00:38 38.65855 -80.09904 37082 ft 451 kts 353°
2026-05-04 00:39 38.72116 -80.09540 37071 ft 450 kts 353°
2026-05-04 00:39 38.78370 -80.09175 37075 ft 450 kts 353°
2026-05-04 00:40 38.84631 -80.08810 37072 ft 450 kts 353°
2026-05-04 00:40 38.90880 -80.08443 37074 ft 451 kts 354°
2026-05-04 00:41 38.97126 -80.07285 37067 ft 459 kts
2026-05-04 00:41 39.03428 -80.05940 37060 ft 459 kts
2026-05-04 00:42 39.09727 -80.04583 37052 ft 459 kts
2026-05-04 00:42 39.16022 -80.03225 37051 ft 459 kts
2026-05-04 00:43 39.22315 -80.01865 37045 ft 459 kts
2026-05-04 00:43 39.28604 -80.00503 37038 ft 459 kts
2026-05-04 00:44 39.34907 -79.99135 37052 ft 458 kts
2026-05-04 00:44 39.41189 -79.97770 37046 ft 458 kts
2026-05-04 00:45 39.47465 -79.96403 37053 ft 457 kts
2026-05-04 00:45 39.53738 -79.95035 37048 ft 457 kts
2026-05-04 00:46 39.60006 -79.93665 37051 ft 457 kts
2026-05-04 00:46 39.66275 -79.92292 37050 ft 456 kts
2026-05-04 00:47 39.72539 -79.90918 37048 ft 456 kts
2026-05-04 00:47 39.78750 -79.89553 37046 ft 455 kts
2026-05-04 00:48 39.84990 -79.88179 37050 ft 455 kts
2026-05-04 00:48 39.91229 -79.86803 37047 ft 454 kts
2026-05-04 00:49 39.97461 -79.85426 37044 ft 454 kts
2026-05-04 00:49 40.03683 -79.84049 37041 ft 454 kts
2026-05-04 00:50 40.09905 -79.82669 37048 ft 454 kts
2026-05-04 00:50 40.16125 -79.81286 37022 ft 454 kts
2026-05-04 00:51 40.22352 -79.79900 37022 ft 454 kts
2026-05-04 00:51 40.28442 -79.78460 37358 ft 430 kts
2026-05-04 00:51 40.31449 -79.77872 37014 ft 440 kts
2026-05-04 00:52 40.34479 -79.77197 37034 ft 444 kts
2026-05-04 00:52 40.40638 -79.75815 37024 ft 453 kts
2026-05-04 00:53 40.46860 -79.74419 37018 ft 454 kts
2026-05-04 00:53 40.53080 -79.73021 37029 ft 454 kts
2026-05-04 00:54 40.59308 -79.71619 37030 ft 454 kts
2026-05-04 00:54 40.65530 -79.70216 37022 ft 454 kts
2026-05-04 00:55 40.71750 -79.68809 37020 ft 453 kts
2026-05-04 00:55 40.77931 -79.67411 37023 ft 454 kts
2026-05-04 00:56 40.84150 -79.66000 37021 ft 453 kts
2026-05-04 00:56 40.90358 -79.64589 37018 ft 453 kts
2026-05-04 00:57 40.96569 -79.63175 37020 ft 452 kts
2026-05-04 00:57 41.02772 -79.61760 37022 ft 453 kts
2026-05-04 00:58 41.08983 -79.60340 37014 ft 453 kts
2026-05-04 00:58 41.15190 -79.58919 37012 ft 452 kts
2026-05-04 00:59 41.21390 -79.57496 36999 ft 452 kts
2026-05-04 00:59 41.27595 -79.56070 37000 ft 453 kts
2026-05-04 01:00 41.33799 -79.54641 36995 ft 452 kts
2026-05-04 01:00 41.40002 -79.53210 36993 ft 452 kts
2026-05-04 01:01 41.46201 -79.51776 36999 ft 452 kts
2026-05-04 01:01 41.52404 -79.50339 36998 ft 452 kts
2026-05-04 01:02 41.58603 -79.48900 36996 ft 452 kts
2026-05-04 01:02 41.64799 -79.47459 36999 ft 452 kts
2026-05-04 01:03 41.70994 -79.46016 37001 ft 452 kts
2026-05-04 01:03 41.77197 -79.44567 36995 ft 452 kts
2026-05-04 01:04 41.83343 -79.43130 36990 ft 452 kts
2026-05-04 01:04 41.89463 -79.41694 36633 ft 438 kts
2026-05-04 01:04 41.92451 -79.40994 36145 ft 434 kts
2026-05-04 01:05 41.95415 -79.40297 35615 ft 432 kts
2026-05-04 01:05 41.98369 -79.39603 35114 ft 429 kts
2026-05-04 01:05 42.01301 -79.38913 34618 ft 427 kts
2026-05-04 01:05 42.04218 -79.38226 34130 ft 424 kts
2026-05-04 01:06 42.07116 -79.37543 33571 ft 421 kts
2026-05-04 01:06 42.09994 -79.36865 33025 ft 418 kts
2026-05-04 01:06 42.12855 -79.36528 32445 ft 409 kts 355°
2026-05-04 01:06 42.15692 -79.36376 31982 ft 406 kts 357°
2026-05-04 01:07 42.18497 -79.36173 31567 ft 401 kts 358°
2026-05-04 01:07 42.21249 -79.35955 31131 ft 398 kts 358°
2026-05-04 01:07 42.24003 -79.35729 30677 ft 394 kts 358°
2026-05-04 01:07 42.26727 -79.35501 30238 ft 390 kts 358°
2026-05-04 01:08 42.29391 -79.35276 29775 ft 378 kts 358°
2026-05-04 01:08 42.31987 -79.35058 29331 ft 371 kts 358°
2026-05-04 01:08 42.34548 -79.34841 28894 ft 367 kts 358°
2026-05-04 01:08 42.37077 -79.34627 28492 ft 363 kts 358°
2026-05-04 01:09 42.39584 -79.34415 28106 ft 359 kts 358°
2026-05-04 01:09 42.42065 -79.34204 27719 ft 356 kts 358°
2026-05-04 01:09 42.44521 -79.33996 27339 ft 352 kts 358°
2026-05-04 01:09 42.46744 -79.33808 27000 ft 349 kts 358°
2026-05-04 01:10 42.49160 -79.33602 26632 ft 346 kts 358°
2026-05-04 01:10 42.51553 -79.33399 26270 ft 343 kts 358°
2026-05-04 01:10 42.53929 -79.33197 25903 ft 340 kts 358°
2026-05-04 01:10 42.56283 -79.32996 25549 ft 337 kts 358°
2026-05-04 01:11 42.58598 -79.32799 25212 ft 331 kts 357°
2026-05-04 01:11 42.60887 -79.32604 24862 ft 328 kts 357°
2026-05-04 01:11 42.63159 -79.32415 24492 ft 327 kts 357°
2026-05-04 01:11 42.65429 -79.32232 24108 ft 326 kts 357°
2026-05-04 01:12 42.67685 -79.32048 23787 ft 323 kts 357°
2026-05-04 01:12 42.69919 -79.31867 23444 ft 321 kts 357°
2026-05-04 01:12 42.72142 -79.31686 23059 ft 319 kts 357°
2026-05-04 01:12 42.74343 -79.31507 22705 ft 315 kts 357°
2026-05-04 01:13 42.76519 -79.31330 22371 ft 311 kts 357°
2026-05-04 01:13 42.78668 -79.31155 22053 ft 308 kts 357°
2026-05-04 01:13 42.80827 -79.30979 21726 ft 314 kts 357°
2026-05-04 01:13 42.83023 -79.30812 21375 ft 317 kts 354°
2026-05-04 01:14 42.85201 -79.31029 20971 ft 313 kts 348°
2026-05-04 01:14 42.87360 -79.31286 20673 ft 309 kts 349°
2026-05-04 01:14 42.89488 -79.31515 20364 ft 306 kts 349°
2026-05-04 01:14 42.91606 -79.31732 20046 ft 303 kts 349°
2026-05-04 01:15 42.93699 -79.31941 19728 ft 300 kts 349°
2026-05-04 01:15 42.95774 -79.32144 19417 ft 299 kts 349°
2026-05-04 01:15 42.97864 -79.32348 19087 ft 304 kts 349°
2026-05-04 01:15 42.99985 -79.32553 18757 ft 308 kts 350°
2026-05-04 01:16 43.02134 -79.32760 18444 ft 309 kts 350°
2026-05-04 01:16 43.04279 -79.32966 18112 ft 309 kts 350°
2026-05-04 01:16 43.06421 -79.33172 17747 ft 308 kts 350°
2026-05-04 01:16 43.08535 -79.33375 17406 ft 305 kts 350°
2026-05-04 01:17 43.10628 -79.33577 17180 ft 298 kts 350°
2026-05-04 01:17 43.12683 -79.33775 16919 ft 293 kts 350°
2026-05-04 01:17 43.14707 -79.33970 16631 ft 291 kts 350°
2026-05-04 01:17 43.16752 -79.34167 16321 ft 297 kts 350°
2026-05-04 01:18 43.18829 -79.34367 16011 ft 301 kts 351°
2026-05-04 01:18 43.20918 -79.34569 15702 ft 301 kts 351°
2026-05-04 01:18 43.23006 -79.34771 15386 ft 301 kts 351°
2026-05-04 01:18 43.25093 -79.34973 15078 ft 300 kts 351°
2026-05-04 01:19 43.27174 -79.35174 14760 ft 300 kts 351°
2026-05-04 01:19 43.28578 -79.35310 14552 ft 299 kts 351°
2026-05-04 01:19 43.31213 -79.36105 14078 ft 289 kts 330°
2026-05-04 01:19 43.33025 -79.37279 13781 ft 287 kts 331°
2026-05-04 01:20 43.34838 -79.38422 13344 ft 288 kts 330°
2026-05-04 01:20 43.36667 -79.39587 12801 ft 292 kts 330°
2026-05-04 01:20 43.38499 -79.40759 12257 ft 288 kts 330°
2026-05-04 01:20 43.40295 -79.41911 11813 ft 281 kts 330°
2026-05-04 01:21 43.41457 -79.42657 11529 ft 280 kts 330°
2026-05-04 01:21 43.43215 -79.43788 11046 ft 276 kts 329°
2026-05-04 01:21 43.44936 -79.44895 10584 ft 270 kts 329°
2026-05-04 01:21 43.46557 -79.45939 10146 ft 265 kts 329°
2026-05-04 01:22 43.48211 -79.47005 9695 ft 261 kts 328°
2026-05-04 01:22 43.49842 -79.48057 9206 ft 256 kts 328°
2026-05-04 01:22 43.51438 -79.49087 8742 ft 251 kts 328°
2026-05-04 01:22 43.53007 -79.50100 8314 ft 246 kts 327°
2026-05-04 01:23 43.54539 -79.51087 8011 ft 239 kts 327°
2026-05-04 01:23 43.56005 -79.52025 7998 ft 225 kts 327°
2026-05-04 01:23 43.57368 -79.52900 8001 ft 218 kts 326°
2026-05-04 01:23 43.58843 -79.53505 7901 ft 230 kts 349°
2026-05-04 01:24 43.60373 -79.53058 7750 ft 247 kts 19°
2026-05-04 01:24 43.61729 -79.51539 7499 ft 259 kts 42°
2026-05-04 01:24 43.62949 -79.49685 7141 ft 261 kts 41°
2026-05-04 01:24 43.64185 -79.47843 6845 ft 261 kts 40°
2026-05-04 01:25 43.65428 -79.46007 6553 ft 262 kts 40°
2026-05-04 01:25 43.66669 -79.44182 6299 ft 260 kts 40°
2026-05-04 01:25 43.67908 -79.42368 6010 ft 259 kts 40°
2026-05-04 01:25 43.69146 -79.40555 5703 ft 260 kts 40°
2026-05-04 01:26 43.70385 -79.38744 5425 ft 258 kts 40°
2026-05-04 01:26 43.71618 -79.36942 5147 ft 257 kts 40°
2026-05-04 01:26 43.72869 -79.35247 4835 ft 251 kts 26°
2026-05-04 01:26 43.74397 -79.34420 4546 ft 227 kts 354°
2026-05-04 01:27 43.75863 -79.34765 4200 ft 206 kts 325°
2026-05-04 01:27 43.76972 -79.35604 4100 ft 197 kts 320°
2026-05-04 01:27 43.78127 -79.36543 3988 ft 195 kts 320°
2026-05-04 01:27 43.79295 -79.37481 3885 ft 193 kts 320°
2026-05-04 01:28 43.80453 -79.38416 3736 ft 192 kts 320°
2026-05-04 01:28 43.81611 -79.39347 3622 ft 192 kts 320°
2026-05-04 01:28 43.82563 -79.40524 3474 ft 177 kts 291°
2026-05-04 01:28 43.82727 -79.42078 3370 ft 157 kts 255°
2026-05-04 01:29 43.82073 -79.43236 3261 ft 161 kts 216°
2026-05-04 01:29 43.80958 -79.43676 3228 ft 171 kts 201°
2026-05-04 01:29 43.79776 -79.43951 3189 ft 173 kts 200°
2026-05-04 01:29 43.78607 -79.44267 3101 ft 167 kts 209°
2026-05-04 01:30 43.77655 -79.45053 3032 ft 156 kts 228°
2026-05-04 01:30 43.76882 -79.46094 3033 ft 155 kts 232°
2026-05-04 01:30 43.76146 -79.47154 2991 ft 155 kts 232°
2026-05-04 01:30 43.75402 -79.48237 2816 ft 155 kts 231°
2026-05-04 01:31 43.74658 -79.49322 2641 ft 156 kts 231°
2026-05-04 01:31 43.73940 -79.50370 2446 ft 155 kts 230°
2026-05-04 01:31 43.73198 -79.51454 2259 ft 156 kts 229°
2026-05-04 01:31 43.72455 -79.52539 2050 ft 152 kts 229°
2026-05-04 01:32 43.71778 -79.53528 1866 ft 132 kts 229°
2026-05-04 01:32 43.71167 -79.54421 1692 ft 125 kts 229°
2026-05-04 01:32 43.70572 -79.55288 1483 ft 124 kts 228°
2026-05-04 01:32 43.69970 -79.56170 1306 ft 129 kts 227°
2026-05-04 01:33 43.69333 -79.57098 1090 ft 138 kts 226°
2026-05-04 01:33 43.68660 -79.58070 940 ft 142 kts 226°
2026-05-04 01:33 43.67976 -79.59070 753 ft 143 kts 225°
2026-05-04 01:33 43.67297 -79.60055 573 ft 139 kts 225°
2026-05-04 01:34 43.66715 -79.60901 565 ft 101 kts 226°
2026-05-04 01:34 43.66342 -79.61441 559 ft 63 kts 226°
2026-05-04 01:34 43.66081 -79.61824 571 ft 43 kts 231°
2026-05-04 01:34 43.65991 -79.62083 566 ft 23 kts 250°
2026-05-04 01:35 43.66027 -79.62243 565 ft 16 kts 318°
2026-05-04 01:35 43.66112 -79.62352 564 ft 18 kts 316°
2026-05-04 01:35 43.66209 -79.62477 560 ft 17 kts 318°
2026-05-04 01:35 43.66310 -79.62460 562 ft 17 kts 43°
2026-05-04 01:36 43.66381 -79.62371 570 ft 13 kts 43°
2026-05-04 01:36 43.66448 -79.62287 568 ft 14 kts 41°
2026-05-04 01:36 43.66511 -79.62238 568 ft 10 kts 350°
2026-05-04 01:36 43.66567 -79.62296 568 ft 12 kts 317°
2026-05-04 01:37 43.66654 -79.62409 572 ft 23 kts 315°
2026-05-04 01:37 43.66799 -79.62600 571 ft 35 kts 316°
2026-05-04 01:37 43.66961 -79.62810 570 ft 28 kts 317°
2026-05-04 01:37 43.67109 -79.63004 569 ft 30 kts 317°
2026-05-04 01:38 43.67237 -79.63171 569 ft 26 kts 317°
2026-05-04 01:38 43.67338 -79.63302 569 ft 20 kts 316°
2026-05-04 01:38 43.67441 -79.63437 568 ft 21 kts 317°
2026-05-04 01:38 43.67552 -79.63582 568 ft 23 kts 317°
2026-05-04 01:39 43.67671 -79.63736 569 ft 24 kts 317°
2026-05-04 01:39 43.67795 -79.63895 569 ft 22 kts 317°
2026-05-04 01:39 43.67874 -79.63952 571 ft 10 kts 23°
2026-05-04 01:39 43.67933 -79.63879 569 ft 13 kts 31°
2026-05-04 01:40 43.68012 -79.63884 569 ft 11 kts
2026-05-04 01:40 43.68077 -79.63830 573 ft 12 kts 47°
2026-05-04 01:40 43.68129 -79.63751 571 ft 7 kts 47°
2026-05-04 01:40 43.68129 -79.63704 573 ft 5 kts 124°
2026-05-04 01:41 43.68109 -79.63673 573 ft 4 kts 131°
2026-05-04 01:41 43.68094 -79.63649 572 ft 3 kts 129°
2026-05-04 01:41 43.68089 -79.63640 571 ft 0 kts 129°